Location: Bilderdam
(52.2128°N, 4.7183°E)
Time: 15:38:28
(UTC+00:00)

Daily predictions for brighter satellites

Satellite Brightness Start Highest point End
(mag) Time Altitude Azimuth Time Altitude Azimuth Time Altitude Azimuth
Sich 1 3.0 17:34:54 10° S 17:39:07 66° E 17:43:23 10° NNE
STARLINK-24 3.9 17:35:29 10° SW 17:39:24 53° SSE 17:43:20 10° ENE
STARLINK-1029 4.0 17:37:34 10° SSW 17:40:26 31° SSE 17:43:18 10° E
Cosmos 1939 Rocket 3.3 17:37:34 10° SE 17:41:31 45° ENE 17:45:29 10° N
USA 234 3.6 17:35:49 10° ENE 17:42:15 62° N 17:48:41 10° W
STARLINK-29 4.0 17:40:14 10° W 17:43:32 47° SSW 17:46:49 10° SE
Cosmos 2173 Rocket 4.4 17:38:10 10° SSW 17:44:33 76° W 17:50:57 10° N
SL-27 R/B 2.6 17:41:29 10° NNW 17:44:50 71° WSW 17:48:07 10° SSE
CZ-4 R/B 1.4 17:42:22 10° SSE 17:46:33 73° ENE 17:50:42 10° N
STARLINK-1016 3.6 17:44:22 10° SW 17:47:31 43° SSE 17:50:41 10° E
STARLINK-1008 3.6 17:44:45 10° SW 17:47:56 44° SSE 17:51:07 10° E
STARLINK-81 3.8 17:45:06 10° SW 17:49:02 55° SSE 17:52:59 10° ENE
USA 229 DEB 3.8 17:42:36 10° SSW 17:49:03 62° SE 17:55:53 10° NE
USA 229 3.8 17:42:43 10° SSW 17:49:10 61° SE 17:55:58 10° NE
Cosmos 1805 Rocket 3.8 17:46:04 10° SSW 17:50:26 74° WNW 17:54:49 10° N
STARLINK-54 3.8 17:46:55 10° SW 17:50:52 59° SSE 17:54:51 10° ENE
Cosmos 1470 Rocket 4.3 17:47:13 10° SSE 17:51:04 31° E 17:54:59 10° NNE
STARLINK-1025 3.5 17:48:03 10° SW 17:51:14 46° SSE 17:54:25 10° E
STARLINK-75 3.1 17:48:35 10° WSW 17:51:58 75° SSE 17:55:21 10° ENE
STARLINK-77 3.8 17:48:23 10° SW 17:52:20 57° SSE 17:56:18 10° ENE
STARLINK-1017 3.5 17:49:42 10° SW 17:52:53 47° SSE 17:56:01 10° E
STARLINK-22 3.2 17:49:37 10° WSW 17:52:58 68° SSE 17:56:16 10° ENE
STARLINK-25 3.8 17:50:02 10° SW 17:53:59 59° SSE 17:57:55 10° ENE
Cosmos 1862 Rocket 3.6 17:49:55 10° N 17:54:13 60° ENE 17:58:31 10° SSE
STARLINK-41 3.1 17:51:04 10° WSW 17:54:26 72° SSE 17:57:41 11° ENE
Cosmos 2242 Rocket 4.1 17:50:12 10° N 17:54:29 39° ENE 17:58:46 10° SE
COSMO-SKYMED 1 2.5 17:50:36 10° NNE 17:54:57 69° ESE 17:59:17 10° S
STARLINK-71 3.7 17:51:53 10° WSW 17:55:51 63° SSE 17:59:44 11° ENE
NOSS 3-1 (A) 3.7 17:51:04 10° SSW 17:56:21 45° ESE 18:02:27 10° NE
STARLINK-52 4.1 17:53:09 10° W 17:56:23 43° SSW 17:59:37 10° SE
Cosmos 1707 Rocket 4.1 17:52:10 10° NNW 17:56:35 66° W 18:01:00 10° S
STARLINK-79 3.7 17:53:19 10° WSW 17:57:17 61° SSE 18:01:05 11° ENE
STARLINK-1048 3.4 17:54:43 10° SW 17:57:57 50° SSE 18:00:54 12° E
STARLINK-78 3.7 17:55:00 10° WSW 17:58:58 62° SSE 18:02:42 11° ENE
Okean-O 3.6 17:55:01 10° S 17:59:21 52° W 18:03:43 10° NNW
STARLINK-1049 3.4 17:56:25 10° SW 17:59:39 51° SSE 18:02:33 12° E
Cosmos 2297 4.2 17:54:15 10° SW 17:59:51 64° NW 18:05:29 10° NNE
CENTAUR R/B 3.8 17:53:35 10° WNW 18:00:09 36° N 18:07:34 10° ENE
STARLINK-57 3.7 17:56:43 10° WSW 18:00:42 64° SSE 18:04:24 12° ENE
STARLINK-1051 3.4 17:58:09 10° SW 18:01:24 52° SSE 18:04:14 13° E
Cosmos 2263 Rocket 4.4 17:59:56 10° NNW 18:01:40 11° N 18:03:24 10° NNE
STARLINK-64 3.3 17:58:05 10° WSW 18:01:41 76° SSE 18:04:55 13° ENE
Cosmos 1812 2.9 17:57:48 10° NNW 18:01:42 79° W 18:05:33 10° S
STARLINK-1028 3.4 17:58:32 10° SW 18:01:46 53° SSE 18:04:37 13° E
STARLINK-49 3.7 17:58:16 10° WSW 18:02:15 64° SSE 18:05:52 12° ENE
Resurs 01 Rocket 3.7 18:01:49 10° ENE 18:02:33 10° NE 18:03:17 10° NE
STARLINK-1021 3.3 18:00:17 10° SW 18:03:33 54° SSE 18:06:19 13° E
STARLINK-26 3.2 18:00:05 10° W 18:03:33 78° N 18:06:33 13° E
STARLINK-27 3.7 17:59:55 10° WSW 18:03:54 65° SSE 18:07:27 13° ENE
Cosmos 2369 Rocket 2.3 17:59:11 10° S 18:04:42 56° ESE 18:10:16 10° NE
STARLINK-1019 3.3 18:02:02 10° SW 18:05:19 55° SSE 18:08:02 14° E
STARLINK-74 3.6 18:01:34 10° WSW 18:05:33 66° SSE 18:09:03 13° ENE
Cosmos 921 Rocket 3.1 18:01:40 10° SSW 18:06:10 73° ESE 18:10:41 10° NNE
Ariane Rocket 3.4 18:01:36 10° SE 18:06:22 42° ENE 18:11:10 10° N
STARLINK-1012 3.3 18:03:50 10° SW 18:07:07 56° SSE 18:09:46 15° E
STARLINK-39 3.6 18:03:12 10° WSW 18:07:12 67° SSE 18:10:38 14° ENE
Okean 1-7 3.8 18:03:44 10° N 18:07:32 29° ENE 18:11:20 10° SE
STARLINK-31 3.6 18:04:52 10° WSW 18:08:51 68° SSE 18:12:14 14° ENE
STARLINK-1026 3.2 18:07:23 10° WSW 18:10:41 59° SSE 18:13:12 16° E
STARLINK-69 3.6 18:06:40 10° WSW 18:10:41 72° SSE 18:14:00 15° ENE
STARLINK-1014 3.5 18:07:42 10° SW 18:11:07 52° SSE 18:13:43 16° E
Cosmos 1703 Rocket 4.1 18:07:00 10° N 18:11:09 36° ENE 18:15:18 10° SE
ATLAS 3B R/B 3.8 18:06:15 10° WNW 18:12:02 31° N 18:17:53 10° ENE
STARLINK-21 3.6 18:08:10 10° WSW 18:12:11 70° SSE 18:15:26 15° ENE
STARLINK-1013 3.2 18:09:12 10° WSW 18:12:30 60° SSE 18:14:58 16° E
SJ-6B 4.1 18:11:06 13° ESE 18:13:16 21° ENE 18:16:09 10° NNE
STARLINK-45 3.5 18:10:01 10° WSW 18:14:01 75° SSE 18:17:13 16° ENE
STARLINK-1009 3.2 18:10:59 10° WSW 18:14:17 61° SSE 18:16:42 17° E
Cosmos 990 Rocket 4.4 18:09:35 10° NNW 18:14:30 43° NE 18:19:23 10° SE
Cosmos 1833 4.2 18:08:49 10° NNW 18:14:38 85° ENE 18:20:23 10° SSE
CZ-2D R/B 3.3 18:11:27 10° SSE 18:15:21 88° WSW 18:19:17 10° NNW
STARLINK-70 3.6 18:11:36 10° WSW 18:15:37 74° SSE 18:18:45 16° ENE
NOSS 7 (D) 4.1 18:12:50 10° NW 18:15:39 58° NE 18:18:06 15° ESE
STARLINK-1015 3.2 18:12:49 10° WSW 18:16:08 62° SSE 18:18:28 18° E
STARLINK-1030 4.5 18:12:36 10° SSW 18:16:21 34° SE 18:19:01 17° E
STARLINK-76 3.6 18:13:08 10° WSW 18:17:08 73° SSE 18:20:13 17° ENE
STARLINK-23 3.5 18:14:46 10° WSW 18:18:47 74° SSE 18:21:48 17° ENE
SJ 16-02 1.9 18:15:52 10° NNW 18:20:02 38° ENE 18:23:51 12° SE
STARLINK-32 3.5 18:16:26 10° WSW 18:20:28 75° SSE 18:23:24 18° ENE
NOSS 2-3 (C) 4.1 18:16:57 10° SSW 18:21:09 45° SE 18:26:09 10° NE
STARLINK-1020 4.4 18:17:29 10° SSW 18:21:17 36° SSE 18:23:48 18° E
STARLINK-40 3.5 18:18:04 10° WSW 18:22:06 76° SSE 18:24:58 18° ENE
Orbus 7S? 3.9 18:14:19 10° WSW 18:22:14 85° SSE 18:25:07 16° ENE
Cosmos 1862 4.3 18:18:45 10° SSW 18:22:38 50° WNW 18:26:31 10° N
STARLINK-1047 4.3 18:19:50 10° SW 18:23:43 38° SSE 18:26:11 19° E
STARLINK-44 3.5 18:19:44 10° WSW 18:23:46 77° SSE 18:26:35 19° ENE
FREGAT/IRIS 3.5 18:23:35 23° E 18:24:04 24° ENE 18:26:23 10° N
Cosmos 1937 Rocket 4.0 18:19:11 10° NNW 18:24:08 39° NE 18:28:21 14° ESE
STARLINK-48 3.5 18:21:32 10° W 18:25:27 77° N 18:28:00 20° E
STARLINK-37 3.5 18:21:29 10° WSW 18:25:31 80° SSE 18:28:16 20° ENE
H-2A R/B 2.5 18:20:30 10° SE 18:25:35 44° ENE 18:30:45 10° N
STARLINK-61 3.4 18:22:17 10° W 18:26:12 86° N 18:28:49 20° ENE
STARLINK-1052 4.3 18:22:24 10° SW 18:26:15 38° SSE 18:28:36 20° E
ARGOS 3.6 18:21:57 10° SE 18:26:58 40° ENE 18:32:00 10° N
STARLINK-36 3.5 18:23:02 10° WSW 18:27:04 79° SSE 18:29:45 20° ENE
STARLINK-68 3.5 18:24:53 10° WSW 18:28:54 83° SSE 18:31:32 21° ENE
CSL-04 Rocket 4.1 18:24:41 10° S 18:30:11 69° WSW 18:35:40 10° NNW
STARLINK-63 3.5 18:26:26 10° WSW 18:30:28 82° SSE 18:33:01 22° ENE
BREEZE-M DEB (TANK) 4.2 18:29:15 10° W 18:31:47 35° SSW 18:37:08 10° SE
STARLINK-35 3.5 18:27:59 10° WSW 18:32:01 82° SSE 18:34:31 22° ENE
Cosmos 2263 4.2 18:26:30 10° SSW 18:32:12 65° ESE 18:37:55 10° NE
Cosmos 1346 Rocket 2.7 18:29:06 10° S 18:33:01 60° E 18:36:56 10° NNE
STARLINK-51 3.5 18:29:39 10° WSW 18:33:41 83° SSE 18:36:07 23° ENE
STARLINK-43 3.3 18:30:49 10° WNW 18:34:32 81° SSW 18:36:38 24° ESE
STARLINK-1023 2.9 18:31:58 10° WSW 18:35:10 76° SSE 18:36:38 29° E
STARLINK-30 3.5 18:31:18 10° WSW 18:35:20 84° SSE 18:37:42 24° ENE
STARLINK-1033 4.1 18:32:13 10° SW 18:36:08 43° SSE 18:38:07 25° E
YAOGAN 1 3.7 18:32:31 10° S 18:36:42 47° W 18:40:55 10° NNW
Nadezhda 4 Rocket 4.3 18:30:46 10° N 18:36:46 44° ENE 18:42:47 10° SE
STARLINK-72 3.5 18:32:57 10° WSW 18:36:59 85° SSE 18:39:17 25° ENE
USA 186 2.7 18:38:08 23° NE 18:38:08 23° NE 18:39:40 10° N
USA 238 DEB 4.2 18:31:41 10° NW 18:38:28 47° NNE 18:43:15 20° E
USA 238 4.3 18:31:47 10° NW 18:38:33 47° NNE 18:43:20 21° E
STARLINK-50 3.5 18:34:35 10° WSW 18:38:38 85° SSE 18:40:52 25° ENE
Cosmos 44 Rocket 3.2 18:35:02 10° NW 18:39:45 65° NE 18:42:57 20° ESE
STARLINK-59 3.5 18:36:22 10° WSW 18:40:24 87° SSE 18:42:34 26° ENE
Cosmos 1633 Rocket 3.9 18:36:29 10° SSW 18:40:44 53° WNW 18:45:01 10° N
Cosmos 1464 Rocket 4.2 18:35:15 10° SSE 18:41:20 50° E 18:47:28 10° NNE
STARLINK-56 3.5 18:37:53 10° WSW 18:41:56 87° SSE 18:44:02 27° ENE
STARLINK-1035 4.0 18:39:10 10° SW 18:43:17 51° SSE 18:45:13 28° E
STARLINK-73 3.5 18:39:34 10° WSW 18:43:37 88° SSE 18:45:39 28° ENE
STARLINK-38 3.5 18:41:15 10° WSW 18:45:17 89° SSE 18:47:15 29° ENE
Cosmos 2297 Rocket 3.2 18:40:43 10° NNW 18:45:39 29° NE 18:47:51 23° ENE
STARLINK-1024 4.0 18:42:06 10° SW 18:46:05 48° SSE 18:47:43 30° E
STARLINK-65 3.5 18:42:52 10° WSW 18:46:55 89° SSE 18:48:49 30° ENE
Aureole 2 Rocket 3.4 18:45:57 10° SW 18:48:26 35° WNW 18:51:01 10° N
STARLINK-53 3.5 18:44:35 10° WSW 18:48:38 89° N 18:50:29 31° ENE
NOSS 3-1 (C) 3.6 18:42:56 10° SW 18:48:39 73° NW 18:55:26 10° NE
Cosmos 1933 Rocket 3.4 18:44:30 10° S 18:48:55 82° E 18:53:19 10° NNE
MONITOR-E 3.8 18:50:06 55° E 18:50:10 55° ENE 18:52:49 10° N
STARLINK-33 3.0 18:48:54 10° W 18:52:11 76° N 18:53:06 43° ENE
Meteor 1-18 Rocket 4.2 18:47:16 10° N 18:53:14 76° ENE 18:59:05 10° SSE
Meteor 1-20 Rocket 4.1 18:48:08 10° S 18:53:34 66° E 18:59:06 10° NNE
STARLINK-1007 2.8 18:50:25 10° WSW 18:53:40 88° SSE 18:54:29 48° E
STARLINK-1027 3.8 18:49:42 10° SW 18:53:53 59° SSE 18:55:28 34° E
STARLINK-55 3.0 18:50:54 10° W 18:54:11 75° N 18:55:01 46° ENE
STARLINK-66 3.0 18:50:59 10° W 18:54:16 75° N 18:55:06 46° ENE
Cosmos 405 2.8 18:51:35 10° NNW 18:55:09 85° E 18:58:22 12° SSE
STARLINK-28 3.0 18:52:33 10° W 18:55:50 75° N 18:56:36 48° ENE
STARLINK-80 3.3 18:52:04 10° WNW 18:55:54 88° NNE 18:57:10 41° E
Cosmos 2221 Rocket 4.1 18:51:42 10° N 18:55:56 37° ENE 18:56:58 33° E
STARLINK-1032 3.8 18:51:57 10° SW 18:55:59 54° SSE 18:57:16 37° E
ADEOS Rocket 3.6 18:48:12 10° NNE 18:56:01 88° ESE 19:03:45 10° SSW
COSMOS 2487 2.9 18:52:46 10° NNW 18:56:12 60° WSW 18:59:29 11° S
STARLINK-58 3.2 18:53:35 10° W 18:57:09 81° N 18:58:11 44° ENE
Cosmos 1943 Rocket 2.8 18:53:13 10° SW 18:58:42 56° NW 19:04:10 10° NNE
STARLINK-62 3.2 18:55:17 10° W 18:58:51 80° N 18:59:48 46° ENE
MOS 1 4.2 18:54:37 10° SSE 19:00:16 81° ENE 19:05:58 10° NNW
STARLINK-34 3.2 18:56:54 10° W 19:00:28 80° N 19:01:22 48° ENE
STARLINK-1011 3.7 18:56:53 10° SW 19:00:56 56° SSE 19:02:02 41° ESE
Okean 1 3.2 18:56:56 10° N 19:00:58 80° ENE 19:04:38 12° SSE
CZ-2C R/B 3.2 18:55:17 10° SSE 19:01:03 68° ENE 19:06:40 10° N
Timation 2 Rocket 4.2 18:54:12 10° NNW 19:01:08 85° ENE 19:07:09 14° SE
Cosmos 2034 Rocket 4.1 18:55:58 10° SSE 19:01:51 50° E 19:07:46 10° NNE
Lacrosse 5 rocket 2.1 18:57:51 10° WNW 19:02:17 49° N 19:04:00 32° ENE
STARLINK-42 2.9 18:59:33 10° W 19:02:48 75° N 19:03:16 60° ENE
Cosmos 1515 3.9 18:59:19 10° N 19:02:58 43° ENE 19:03:00 43° ENE
Cosmos 468 Rocket 4.2 18:58:09 10° S 19:03:11 46° ESE 19:08:16 10° NE
Cosmos 2227 Rocket 3.0 18:59:16 10° NNW 19:04:23 33° NE 19:05:52 29° ENE
Genesis I 3.6 19:01:14 10° NW 19:04:59 44° NE 19:05:28 42° ENE
Cosmos 1340 3.6 19:02:04 10° SSW 19:05:43 48° WNW 19:09:24 10° N
BREEZE-M DEB (TANK) 3.3 19:03:26 10° W 19:05:47 43° S 19:06:06 40° SSE
STARLINK-1036 3.7 19:01:51 10° SW 19:05:56 59° SSE 19:06:51 46° ESE
Okean 3 3.9 19:03:23 10° N 19:07:23 40° ENE 19:07:23 40° ENE
STARLINK 1040 2.7 19:05:04 10° W 19:07:42 73° WNW 19:07:42 73° WNW
STARLINK-1010 2.8 19:05:08 10° W 19:08:24 85° NNW 19:08:41 73° ENE
SPOT 3 Rocket 3.6 19:05:25 23° SE 19:08:32 59° ENE 19:13:41 10° N
STARLINK-1044 3.6 19:06:48 10° WSW 19:10:53 62° SSE 19:11:38 51° ESE
STARLINK-1031 3.5 19:08:03 10° WSW 19:12:05 67° SSE 19:12:46 55° ESE
Meteor 1-14 Rocket 4.1 19:06:41 10° S 19:12:07 62° E 19:17:38 10° NNE
Cosmos 1898 Rocket 3.6 19:07:17 10° NNW 19:12:29 76° WSW 19:17:01 14° SSE
Meteor 2-11 Rocket 4.3 19:06:52 10° S 19:12:56 76° E 19:19:02 10° NNE
Lacrosse 4 Rocket 3.9 19:10:38 10° WNW 19:13:49 20° NNW 19:17:03 10° NNE
Gbstr 26 Del rocket 3.9 19:10:47 10° SSW 19:14:28 33° SSE 19:14:28 33° SSE
STARLINK-1029 2.9 19:13:02 10° WSW 19:16:03 80° W 19:16:03 80° W
STARLINK-24 3.5 19:14:25 10° W 19:18:27 80° N 19:19:06 61° ENE
Resurs 1-3 3.7 19:19:42 50° E 19:19:55 51° ENE 19:24:12 10° N
STARLINK-1037 3.5 19:16:39 10° WSW 19:20:45 68° SSE 19:21:07 63° ESE
Cosmos 1092 Rocket 4.0 19:15:14 10° N 19:21:31 58° ENE 19:24:43 29° SE
NOSS 2-3 (E) 4.0 19:17:53 10° SW 19:22:22 74° NW 19:25:52 22° NE
STARLINK-1016 3.2 19:20:35 10° W 19:23:34 69° WNW 19:23:34 69° WNW
STARLINK-1008 3.2 19:20:59 10° W 19:24:02 70° WNW 19:24:02 70° WNW
USA 234 3.4 19:21:54 33° E 19:24:56 65° NNE 19:31:24 10° WNW
Cosmos 2150 Rocket 4.3 19:19:57 10° NNW 19:25:12 48° ENE 19:25:58 45° E
STARLINK-1059 3.5 19:21:40 10° WSW 19:25:48 71° SSE 19:25:59 70° SE
STARLINK-1025 3.4 19:24:21 10° W 19:27:13 63° WNW 19:27:13 63° WNW
STARLINK-81 3.4 19:24:05 10° W 19:28:08 80° N 19:28:23 75° NE
Cosmos 1763 Rocket 3.4 19:23:28 10° S 19:28:36 60° ESE 19:33:50 10° NNE
Cosmos 2219 3.3 19:22:55 10° NNW 19:28:38 59° NE 19:29:58 47° ESE
STARLINK-75 3.4 19:25:18 10° W 19:28:18 64° WNW 19:28:18 64° WNW
Meteor 2-4 Rocket 3.7 19:22:56 10° N 19:28:52 76° ENE 19:32:13 27° SSE
Meteor 1-19 Rocket 4.4 19:23:02 10° NNW 19:28:54 75° W 19:34:32 10° S
STARLINK-1017 3.5 19:26:01 10° W 19:28:50 60° WNW 19:28:50 60° WNW
Cosmos 1656 Rocket 3.7 19:23:50 10° SW 19:29:22 77° WNW 19:35:02 10° NNE
STARLINK-22 3.5 19:26:12 10° W 19:29:06 61° WNW 19:29:06 61° WNW
STARLINK-54 3.4 19:25:58 10° W 19:30:00 79° N 19:30:10 76° NNE
STARLINK-1057 3.5 19:26:40 10° WSW 19:30:46 74° SSE 19:30:46 74° SSE
NOSS 3-2 (A) 4.0 19:23:39 10° NW 19:30:48 67° NE 19:34:00 39° ESE
STARLINK-41 3.6 19:27:40 10° W 19:30:31 59° WNW 19:30:31 59° WNW
STARLINK-77 3.4 19:27:24 10° W 19:31:27 79° N 19:31:34 78° NNE
NOSS 3-2 (C) 4.2 19:25:30 10° NW 19:32:29 55° NNE 19:35:19 38° E
STARLINK-25 3.5 19:29:05 10° W 19:33:07 79° N 19:33:10 79° N
STARLINK-1048 3.8 19:31:06 10° W 19:33:44 52° WNW 19:33:44 52° WNW
STARLINK-71 3.5 19:30:58 10° W 19:34:58 78° N 19:34:58 78° N
STARLINK-1034 3.6 19:31:37 10° WSW 19:35:33 74° SSW 19:35:33 74° SSW
STARLINK-1049 3.9 19:32:50 10° W 19:35:23 49° WNW 19:35:23 49° WNW
STARLINK-79 3.5 19:32:22 10° W 19:36:20 78° NNW 19:36:20 78° NNW
Cosmos 2195 Rocket 4.4 19:30:36 10° N 19:36:42 62° ENE 19:38:26 45° SE
NOSS 2-3 (D) 4.2 19:32:58 10° WSW 19:37:28 64° NW 19:40:16 27° NE
STARLINK-1051 4.0 19:34:35 10° W 19:37:05 47° W 19:37:05 47° W
STARLINK-78 3.6 19:34:04 10° W 19:37:57 76° NW 19:37:57 76° NW
Resurs 01 Rocket 2.0 19:38:52 49° NNE 19:38:52 49° NNE 19:42:29 10° N
STARLINK-1028 4.0 19:35:00 10° W 19:37:30 47° W 19:37:30 47° W
STARLINK-64 3.8 19:35:37 10° W 19:38:37 58° WNW 19:38:37 58° WNW
Cosmos 1125 Rocket 4.2 19:34:15 10° NNW 19:38:58 39° NE 19:38:58 39° NE
STARLINK-57 3.6 19:35:49 10° W 19:39:38 74° NW 19:39:38 74° NW
STARLINK-1021 4.1 19:36:47 10° W 19:39:12 44° W 19:39:12 44° W
USA 229 DEB 4.4 19:33:48 10° WSW 19:40:16 50° NNW 19:45:56 15° NE
USA 229 4.4 19:33:54 10° WSW 19:40:22 50° NNW 19:46:00 15° NE
STARLINK-26 4.0 19:37:13 10° WNW 19:39:52 49° W 19:39:52 49° W
STARLINK-1068 3.7 19:36:35 10° WSW 19:40:19 70° SW 19:40:19 70° SW
STARLINK-49 3.6 19:37:21 10° W 19:41:07 73° NW 19:41:07 73° NW
STARLINK-1019 4.2 19:38:33 10° W 19:40:55 42° W 19:40:55 42° W
Cosmos 1602 4.2 19:38:42 10° SSW 19:42:32 60° WNW 19:46:24 10° N
CZ-2C R/B 4.0 19:38:17 10° NNE 19:48:32 - S 19:41:52 52° NE
STARLINK-27 3.7 19:39:01 10° W 19:42:42 70° NW 19:42:42 70° NW
STARLINK-1012 4.3 19:40:22 10° W 19:42:40 40° W 19:42:40 40° W
STARLINK-74 3.8 19:40:40 10° W 19:44:17 68° WNW 19:44:17 68° WNW
STARLINK-39 3.8 19:42:19 10° W 19:45:53 66° WNW 19:45:53 66° WNW
NOSS 3-1 (A) 4.0 19:41:24 10° WSW 19:47:08 56° NNW 19:52:11 18° NE
SL-08 RB Rocket 3.9 19:45:57 43° SSW 19:47:17 67° WSW 19:51:46 10° NNW
SJ-6B 3.7 19:46:43 35° SW 19:47:41 44° W 19:51:21 10° NNW
STARLINK-31 3.9 19:44:00 10° W 19:47:28 63° WNW 19:47:28 63° WNW
STARLINK-1014 4.4 19:44:35 10° W 19:46:59 41° W 19:46:59 41° W
Cosmos 2263 Rocket 4.0 19:44:18 10° NNW 19:48:08 18° NNE 19:48:31 18° NNE
Cosmos 2369 Rocket 3.6 19:43:47 10° WSW 19:49:00 36° NW 19:54:16 10° NNE
STARLINK-69 4.0 19:45:50 10° W 19:49:14 61° WNW 19:49:14 61° WNW
Lacrosse 5 3.4 19:45:34 10° SSW 19:47:37 22° S 19:47:37 22° S
STARLINK-1060 4.1 19:46:31 10° WSW 19:49:53 58° WSW 19:49:53 58° WSW
STARLINK-21 4.0 19:47:19 10° W 19:50:40 59° WNW 19:50:40 59° WNW
MetOp-A 4.1 19:50:10 44° S 19:51:55 82° WSW 19:57:20 10° NNW
CENTAUR R/B 3.3 19:44:51 10° NW 19:52:22 59° NNE 19:54:46 45° E
ARGOS Delta rocket 4.2 19:51:19 36° SSW 19:52:51 56° W 19:57:17 10° NNW
STARLINK-45 4.1 19:49:11 10° W 19:52:27 56° WNW 19:52:27 56° WNW
STARLINK-70 4.2 19:50:46 10° W 19:53:59 54° WNW 19:53:59 54° WNW
STARLINK-1030 4.3 19:51:31 10° WSW 19:54:42 52° WSW 19:54:42 52° WSW
CZ-2C R/B 4.2 19:50:35 10° NNE 19:52:39 22° NNE 19:52:39 22° NNE
STARLINK-76 4.3 19:52:18 10° W 19:55:27 52° WNW 19:55:27 52° WNW
STARLINK-23 4.3 19:53:57 10° W 19:57:02 50° WNW 19:57:02 50° WNW
Meteor 1-13 Rocket 4.2 19:52:04 10° NNW 19:58:01 89° ENE 19:59:12 59° SSE
SJ 16-02 3.1 19:54:39 10° NW 19:58:32 30° WSW 20:00:55 18° SSW
STARLINK-32 4.4 19:55:37 10° W 19:58:38 48° WNW 19:58:38 48° WNW
STARLINK-1020 4.5 19:56:29 10° WSW 19:59:28 46° WSW 19:59:28 46° WSW
Cosmos 1869 Rocket 4.3 19:56:53 10° SSW 20:01:10 50° WNW 20:05:28 10° N
STARLINK-40 4.5 19:57:15 10° W 20:00:13 47° WNW 20:00:13 47° WNW
Spot 2 Rocket 4.2 20:03:32 43° NNE 20:03:32 43° NNE 20:07:13 10° N
ATLAS 3B R/B 3.1 19:57:51 10° NW 20:04:16 46° NNE 20:05:09 44° NE
Cosmos 1627 Rocket 4.3 19:58:32 10° N 20:04:48 87° E 20:05:55 63° SSE
H-2A R/B 3.5 20:00:08 10° SSW 20:05:05 37° W 20:10:09 10° NNW
ARGOS 4.4 20:02:09 10° SSW 20:07:14 40° W 20:12:22 10° NNW
Cosmos 2026 Rocket 4.1 20:22:42 10° NNW 20:28:54 70° W 20:29:34 64° SW
USA 238 DEB 3.8 20:22:48 10° NW 20:29:56 73° SW 20:30:43 67° S
USA 238 3.8 20:22:54 10° NW 20:30:02 74° SW 20:30:48 68° S
Cosmos 2297 Rocket 2.4 20:24:35 10° NNW 20:29:41 68° WNW 20:29:41 68° WNW
Lacrosse 5 rocket 3.3 20:37:10 10° WNW 20:39:38 32° WNW 20:39:38 32° WNW
Cosmos 1655 Rocket 4.4 20:38:49 10° N 20:43:48 56° N 20:43:48 56° N
Cosmos 2227 Rocket 2.9 20:43:14 10° NW 20:47:42 51° WNW 20:47:42 51° WNW
Lacrosse 4 Rocket 4.4 20:53:16 10° NNW 20:54:14 11° N 20:54:24 11° N
BREEZE-M DEB (TANK) 4.2 20:44:18 10° W 20:56:33 52° WSW 20:56:33 52° WSW
Terra 4.3 21:05:45 16° N 21:05:45 16° N 21:06:45 10° N
USA 234 3.6 21:09:15 58° W 21:09:15 58° W 21:14:31 10° WNW
Resurs 01 Rocket 4.2 21:16:25 18° WNW 21:16:25 18° WNW 21:18:19 10° NW
NOSS 3-2 (C) 4.4 21:16:29 10° NW 21:22:47 57° W 21:22:47 57° W
Cosmos 2263 Rocket 4.1 21:27:49 10° NNW 21:30:13 25° NNW 21:30:13 25° NNW
CENTAUR R/B 3.6 21:35:39 10° NW 21:41:57 53° W 21:41:57 53° W
ATLAS 3B R/B 3.9 21:48:39 10° NW 21:52:24 36° WNW 21:52:24 36° WNW
